Location: *
(47.4000°N, 4.7167°E)
Time: 17:12:58
(UTC+00:00)

Daily predictions for brighter satellites

Satellite Brightness Start Highest point End
(mag) Time Altitude Azimuth Time Altitude Azimuth Time Altitude Azimuth
Cosmos 1943 Rocket 2.3 18:39:07 10° NNW 18:44:38 62° ENE 18:50:09 10° SE
SL-8 R/B 3.7 18:39:54 10° WNW 18:44:43 89° S 18:49:30 10° ESE
Meteor 1-24 Rocket 4.2 18:40:31 10° NNW 18:45:56 63° W 18:51:11 10° S
Cosmos 1709 Rocket 4.0 18:40:02 10° N 18:46:15 80° E 18:52:23 10° SSE
ADEOS Rocket 3.4 18:40:03 10° NNE 18:46:43 74° WNW 18:52:38 10° SSW
STARLINK-1073 3.8 18:42:40 10° WNW 18:46:49 75° SSW 18:50:56 10° SE
STARLINK-1192 4.4 18:43:36 10° W 18:47:39 50° NNW 18:51:42 10° ENE
Cosmos 1602 Rocket 3.7 18:43:58 10° N 18:48:22 54° ENE 18:52:40 10° SSE
Cosmos 1470 2.7 18:47:54 10° S 18:51:44 64° E 18:55:37 10° NNE
STARLINK-1121 3.8 18:47:38 10° WNW 18:51:46 70° SSW 18:55:53 10° SE
STARLINK-1244 4.5 18:48:37 10° W 18:52:39 48° NNW 18:56:41 10° ENE
Ariane Rocket 3.0 18:51:09 10° SSE 18:56:13 79° ENE 19:01:18 10° NNW
STARLINK-1106 3.9 18:52:37 10° WNW 18:56:44 65° SSW 19:00:50 10° SE
Abrixas rocket 1.9 18:55:20 10° WSW 18:58:16 72° SSE 19:01:14 10° ENE
STARLINK-67 4.4 18:57:06 10° NW 18:59:13 22° N 19:01:21 10° NE
Cosmos 1544 Rocket 4.0 18:55:03 10° SSW 18:59:26 69° W 19:03:54 10° N
Aureole 2 Rocket 2.5 18:56:10 10° NNW 18:59:38 57° ENE 19:03:00 10° SE
Cosmos 2074 Rocket 4.4 18:55:06 10° N 19:01:07 45° ENE 19:07:05 10° SE
STARLINK-1112 4.0 18:57:37 10° WNW 19:01:43 60° SW 19:05:47 10° SE
ATLAS 2AS CENTAUR R/B 3.6 18:55:06 10° NW 19:02:25 42° NE 19:08:47 12° ESE
Cosmos 1943 3.8 18:58:32 10° SSE 19:03:30 33° ESE 19:08:31 10° NE
ISS -3.5 19:00:58 10° WNW 19:04:19 65° SSW 19:07:16 13° SE
Cosmos 1825 Rocket 4.3 19:01:59 10° N 19:06:00 33° ENE 19:09:59 10° SE
STARLINK-1128 4.1 19:02:37 10° WNW 19:06:41 56° SW 19:10:37 11° SE
USA 234 4.0 19:01:57 10° ENE 19:07:33 29° SE 19:13:07 10° S
SL-08 RB Rocket 3.9 19:04:10 10° SE 19:08:33 51° ENE 19:13:01 10° N
STARLINK-1113 4.2 19:07:36 10° WNW 19:11:38 51° SW 19:15:23 12° SE
SPOT 3 Rocket 3.9 19:07:43 10° SE 19:12:43 49° ENE 19:17:44 10° N
STARLINK-1119 4.3 19:12:36 10° WNW 19:16:36 48° SW 19:20:11 12° SE
SeaSat 1 3.9 19:13:00 10° NNE 19:17:39 41° NW 19:22:14 10° WSW
Cosmos 1758 Rocket 3.7 19:13:37 10° N 19:17:52 51° ENE 19:22:04 10° SSE
SJ-6B 2.9 19:14:57 10° SSE 19:19:02 76° ENE 19:23:11 10° N
STARLINK-1114 4.5 19:17:36 10° WNW 19:21:34 44° SW 19:24:58 13° SSE
IRIDIUM 106 4.3 19:16:57 10° N 19:22:11 70° E 19:27:23 10° S
MOS 1 Rocket 4.2 19:18:22 10° NNE 19:23:13 35° E 19:28:09 10° SSE
SL-16 R/B 3.4 19:19:17 10° SW 19:24:43 46° NW 19:30:11 10° NNE
Cosmos 1953 Rocket 4.2 19:20:53 10° N 19:25:01 36° ENE 19:27:53 18° SE
Cosmos 1818 4.0 19:23:31 10° S 19:28:30 38° ESE 19:33:30 10° NE
CZ-2C R/B 3.1 19:23:43 10° S 19:28:40 72° WSW 19:33:28 10° NNW
Cosmos 1606 Rocket 4.0 19:25:03 10° SSE 19:29:11 41° E 19:33:24 10° NNE
MOS 1 4.5 19:24:05 10° S 19:29:43 75° WSW 19:35:25 10° NNW
Cosmos 1758 4.3 19:26:02 10° SSW 19:30:02 52° WNW 19:34:03 10° N
BREEZE M DEB (TANK) 4.5 19:21:03 10° SW 19:31:50 41° SSE 19:34:30 20° E
Cosmos 407 Rocket 4.4 19:30:02 11° SSE 19:33:57 26° E 19:38:09 10° NE
SL-24 R/B 3.9 19:30:49 10° NNE 19:35:06 56° E 19:38:54 10° S
Cosmos 2228 3.3 19:31:11 10° SSE 19:35:15 44° E 19:39:22 10° NNE
CZ-2C R/B 3.0 19:30:25 10° NNE 19:35:17 40° E 19:40:08 10° SSE
Cosmos 1656 Rocket 3.8 19:30:49 10° NNW 19:36:26 59° ENE 19:40:14 20° SE
Meteor 1-21 Rocket 4.4 19:31:53 10° NNW 19:37:27 75° W 19:42:57 10° S
Cosmos 1992 Rocket 4.2 19:32:48 10° NNW 19:38:00 70° WSW 19:43:09 10° S
ARGOS 3.6 19:36:22 10° S 19:41:43 62° WSW 19:47:04 10° NNW
MetOp-A 4.1 19:38:31 10° SSE 19:43:49 81° ENE 19:49:12 10° NNW
SL-4 R/B 2.8 19:41:30 10° SSW 19:43:45 24° SSE 19:43:45 24° SSE
BREEZE-M DEB (TANK) 3.4 19:38:05 10° WNW 19:44:38 85° NNE 19:45:58 32° ESE
COSMOS 2455 3.8 19:39:39 10° NNW 19:45:04 33° NE 19:48:18 20° E
USA 186 3.6 19:43:49 10° SSW 19:46:54 32° W 19:49:55 10° NNW
Cosmos 1603 3.6 19:41:17 10° SSW 19:46:55 86° ESE 19:52:34 10° NNE
Cosmos 1726 2.1 19:43:52 10° S 19:47:37 84° WNW 19:51:23 10° N
Cosmos 1340 Rocket 3.6 19:47:46 29° E 19:48:03 30° E 19:51:36 10° NNE
STARLINK-1234 4.4 19:45:37 10° NW 19:48:19 28° N 19:49:39 20° NE
STARLINK-1228 4.4 19:45:48 10° NW 19:48:21 27° N 19:49:30 20° NE
ERS-1 Rocket 4.5 19:47:59 18° ENE 19:49:14 19° ENE 19:52:44 10° NNE
H-2A R/B 3.2 19:45:39 10° S 19:50:38 43° W 19:55:32 10° NNW
Cosmos 1328 3.7 19:49:26 10° N 19:53:26 72° E 19:55:27 28° SSE
Meteor 1-16 Rocket 4.0 19:48:19 10° S 19:53:41 84° E 19:59:15 10° NNE
Resurs 1-3 3.5 19:51:24 18° SSE 19:54:37 90° SSE 19:59:03 10° NNW
Cosmos 2184 Rocket 4.1 19:51:28 10° NNW 19:57:48 78° W 20:04:01 10° S
STARLINK-1209 4.2 19:56:01 10° NW 19:58:40 29° N 19:59:26 25° NE
Meteor 2-10 4.4 19:57:55 10° SSW 20:03:19 71° WNW 20:08:57 10° N
Cosmos 1703 3.3 20:00:56 10° N 20:04:54 82° W 20:06:52 29° S
Cosmos 1461 3.8 20:02:25 10° NNW 20:06:41 40° NE 20:07:55 33° E
Cosmos 1953 3.9 20:03:53 10° SW 20:07:34 36° WNW 20:11:18 10° N
DMSP B5D2-2 4.0 20:04:33 10° NNE 20:09:48 89° WNW 20:15:02 10° SSW
Resurs 01 Rocket 1.6 20:12:28 31° S 20:14:35 81° WSW 20:19:01 10° NNW
APEX 4.3 20:10:30 10° NNW 20:17:19 76° ENE 20:19:41 38° SE
Cosmos 2154 Rocket 4.1 20:13:17 10° N 20:19:40 82° W 20:24:20 20° S
Cosmos 2058 Rocket 3.0 20:18:19 37° S 20:20:00 73° E 20:24:32 10° NNE
Cosmos 2181 Rocket 4.4 20:18:41 36° ESE 20:20:01 40° E 20:25:45 10° NNE
USA 245 4.4 20:18:18 40° SE 20:20:09 59° ENE 20:26:13 10° N
NOSS 3-4 (A) 3.8 20:14:23 10° NW 20:21:22 83° NE 20:24:57 35° SE
NOSS 3-4 (C) 3.8 20:14:29 10° NW 20:21:28 83° NE 20:25:02 35° SE
Cosmos 1300 4.1 20:23:46 26° NE 20:23:46 26° NE 20:25:46 10° NNE
Cosmos 2369 Rocket 3.6 20:17:20 10° NW 20:22:23 33° WSW 20:27:18 10° SSW
Landsat 7 4.0 20:24:18 46° E 20:24:53 49° ENE 20:29:29 10° N
Cosmos 962 Rocket 4.4 20:20:28 10° N 20:26:40 74° E 20:29:12 37° SSE
Nadezhda 1 Rocket 4.2 20:20:48 10° SSW 20:27:12 76° W 20:33:36 10° N
Cosmos 1943 Rocket 4.2 20:23:42 10° NW 20:27:55 23° WSW 20:32:09 10° SSW
Cosmos 1908 3.9 20:27:25 19° SSW 20:29:57 54° WNW 20:33:47 10° N
Meteor 1-11 4.4 20:25:25 10° NNW 20:31:11 71° W 20:34:22 27° S
SL-8 Rocket 4.1 20:25:03 10° N 20:31:15 55° ENE 20:32:55 44° SE
Abrixas rocket 3.5 20:30:59 10° W 20:32:54 36° WNW 20:32:54 36° WNW
SL-24 R/B - RUBIN 2 4.2 20:32:28 10° SSW 20:37:56 61° ESE 20:44:06 10° NE
SPOT 5 3.6 20:39:20 33° NE 20:39:20 33° NE 20:42:41 10° N
Cosmos 1726 Rocket 4.5 20:34:30 10° SSW 20:38:45 48° WNW 20:43:04 10° N
Cosmos 2058 4.2 20:35:15 10° N 20:37:54 29° NE 20:37:54 29° NE
ISS -1.0 20:39:16 10° WSW 20:40:16 12° SW 20:40:16 12° SW
Cosmos 2366 rocket 4.1 20:35:35 10° N 20:41:35 52° ENE 20:42:32 48° ESE
Cosmos 1190 Rocket 3.9 20:40:52 28° SSW 20:43:47 84° ESE 20:49:07 10° NNE
Cosmos 1943 4.3 20:41:59 10° SW 20:47:24 45° NW 20:52:52 10° NNE
Spot 2 Rocket 3.5 20:46:22 54° S 20:47:33 79° WSW 20:52:41 10° NNW
Aureole 1 Rocket 4.3 20:42:55 10° SSW 20:50:44 76° WNW 20:56:55 10° NNE
USA 234 3.1 20:44:30 10° NE 20:51:05 89° SE 20:57:38 10° SW
Cosmos 1959 Rocket 4.5 20:46:18 10° N 20:52:38 65° E 20:53:38 57° ESE
Cosmos 1140 Rocket 3.3 20:51:22 53° SSW 20:52:38 87° ESE 20:57:50 10° NNE
ATLAS 2AS CENTAUR R/B 3.0 20:46:21 10° NW 20:53:50 65° WSW 20:56:14 42° S
Iridium 4 Rocket 3.8 20:53:40 10° N 20:56:43 42° NNE 20:56:43 42° NNE
BREEZE M DEB (TANK) 4.0 21:02:08 48° E 21:02:08 48° E 21:12:10 10° ENE
Cosmos 1697 Rocket 4.1 21:01:51 10° N 21:06:27 24° NE 21:06:58 24° NE
Terra 2.5 21:07:36 44° NE 21:07:36 44° NE 21:11:20 10° N
Cosmos 468 Rocket 4.5 21:05:03 10° NNW 21:09:34 48° NE 21:09:34 48° NE
Cosmos 921 Rocket 3.8 21:06:07 10° NNW 21:09:39 47° WNW 21:09:39 47° WNW
Cosmos 676 Rocket 4.0 21:12:05 76° NNE 21:12:05 76° NNE 21:16:57 10° NNE
CZ-4C R/B 4.2 21:08:10 10° NNW 21:13:56 29° NNE 21:17:32 20° ENE
CZ-2C R/B 4.3 21:10:58 10° N 21:15:29 31° WNW 21:19:58 10° SW
IGS 5A 4.4 21:16:12 47° WNW 21:16:12 47° WNW 21:19:36 10° NNW
Cosmos 407 Rocket 4.4 21:10:43 10° SW 21:15:40 46° WNW 21:20:38 10° NNE
SL-08 R/B 4.4 21:11:02 10° N 21:17:09 66° ENE 21:17:09 66° ENE
SPOT 1/Viking Rocket 3.7 21:17:02 66° WSW 21:17:14 67° WSW 21:22:28 10° NNW
Cosmos 1821 Rocket 4.5 21:18:11 10° N 21:23:55 47° ENE 21:23:55 47° ENE
ERS-1 Rocket 3.2 21:27:58 64° WNW 21:27:58 64° WNW 21:32:33 10° NNW
COSMOS 2455 3.0 21:25:27 10° NW 21:31:23 60° WSW 21:31:27 60° WSW
Cosmos 1980 Rocket 3.8 21:29:21 10° N 21:33:43 23° NE 21:33:52 23° NE
Cosmos 1954 Rocket 4.4 21:37:55 60° NW 21:37:55 60° NW 21:42:54 10° NNE
ATLAS CENTAUR R/B 3.8 21:40:47 10° NNW 21:42:19 16° N 21:42:19 16° N
Cosmos 1656 4.1 21:45:43 10° NNW 21:50:24 58° N 21:50:24 58° N
ATLAS 5 CENTAUR R/B 3.7 22:02:17 23° NNE 22:02:17 23° NNE 22:04:26 10° NNE
USA 234 4.1 22:27:38 10° NE 22:33:48 46° NNW 22:39:58 10° W
Terra 4.2 22:46:29 18° WNW 22:46:29 18° WNW 22:48:23 10° NW
Cosmos 1697 Rocket 4.0 22:45:19 10° NNW 22:48:42 37° NW 22:48:42 37° NW
Mayak 1.5 22:48:50 10° N 22:49:57 17° NNW 22:49:57 17° NNW
SL-16 R/B 3.8 22:56:38 10° NNW 23:00:33 29° NNE 23:00:33 29° NNE
CZ-4C R/B 3.1 22:56:30 10° NW 23:02:42 67° N 23:02:42 67° N
Cosmos 2360 Rocket 4.2 23:06:25 10° N 23:10:26 19° NE 23:10:44 19° NE
Cosmos 2322 Rocket 3.8 23:07:58 10° NNW 23:11:48 29° NNE 23:11:48 29° NNE
Cosmos 1980 Rocket 3.7 23:12:44 10° NNW 23:15:38 32° NNW 23:15:38 32° NNW
Cosmos 2344 4.3 23:28:15 10° NW 23:37:54 81° SW 23:38:51 76° S
Cosmos 2082 Rocket 3.7 23:44:34 33° N 23:44:34 33° N 23:47:47 10° NNE
